Home > Weather > Eskilstuna > Past weeks

Flag for Sweden Past Weather in Eskilstuna, Sweden — Yesterday and Last 2 Weeks

Now
63 °F

Mild.


Feels Like: 63 °F
Forecast: 52 / 67 °F
Wind: 8 mph from Southwest

Location: Vasteras / Hasslo

Current Time: Jun 28, 2016 at 10:34:33 PM

Latest Report: Jun 28, 2016 at 10:20 PM


Visibility: N/A

Pressure: 29.89 "Hg

Humidity: 52%

Dew Point: 45 °F

Location of EskilstunaLocation

Past Weather in Eskilstuna — Graph

°F

Eskilstuna Temperature Yesterday

Maximum temperature yesterday: 70 °F (at 2:20 PM)
Minimum temperature yesterday: 54 °F (at 11:50 PM)
Average temperature yesterday: 63 °F

High & Low Weather Summary for the Past Weeks

 TemperatureHumidityPressure
High81 °F (Jun 25, 4:20 PM)100% (Jun 21, 3:50 AM)30.15 "Hg (Jun 21, 3:50 AM)
Low41 °F (Jun 15, 2:50 AM)27% (Jun 14, 3:20 PM)29.39 "Hg (Jun 18, 3:20 AM)
Average62 °F72%29.84 "Hg
* Reported Jun 13 9:20 PM — Jun 28 9:20 PM, Eskilstuna, Weather by CustomWeather, © 2016

Note: Actual official high and low records may vary slightly from our data, if they occured in-between our weather recording intervals... More about our weather records

Advertising

Eskilstuna Weather History for the Previous 24 Hours

Scroll right to see more
 ConditionsComfort  
Time TempWeatherWind HumidityBarometerVisibility
9:20 PM
Tue, Jun 28
64 °FSunny.9 mph49%29.86 "Hg10 mi
8:50 PM64 °FPassing clouds.9 mph46%29.86 "HgN/A
8:20 PM66 °FPassing clouds.13 mph40%29.86 "HgN/A
7:50 PM66 °FSunny.12 mph43%29.86 "Hg10 mi
7:20 PM68 °FPassing clouds.10 mph43%29.86 "HgN/A
6:50 PM68 °FPassing clouds.10 mph46%29.86 "HgN/A
6:20 PM68 °FPassing clouds.12 mph46%29.86 "HgN/A
5:50 PM68 °FPassing clouds.12 mph46%29.86 "HgN/A
5:20 PM70 °FSunny.13 mph43%29.86 "Hg10 mi
4:50 PM66 °FPassing clouds.12 mph46%29.86 "HgN/A
4:20 PM70 °FPassing clouds.13 mph43%29.86 "HgN/A
3:50 PM68 °FPassing clouds.13 mph43%29.86 "HgN/A
3:20 PM68 °FPassing clouds.13 mph43%29.86 "HgN/A
2:50 PM68 °FPassing clouds.14 mph46%29.86 "HgN/A
2:20 PM70 °FPassing clouds.14 mph46%29.86 "HgN/A
1:50 PM68 °FPassing clouds.14 mph49%29.86 "HgN/A
1:20 PM70 °FPassing clouds.12 mph50%29.86 "HgN/A
12:50 PM68 °FPassing clouds.13 mph56%29.86 "HgN/A
12:20 PM66 °FScattered clouds.12 mph60%29.86 "HgN/A
11:50 AM66 °FScattered clouds.13 mph64%29.86 "HgN/A
11:20 AM66 °FScattered clouds.12 mph64%29.83 "HgN/A
10:50 AM66 °FPassing clouds.12 mph68%29.83 "HgN/A
10:20 AM66 °FScattered clouds.12 mph68%29.83 "HgN/A
9:50 AM64 °FScattered clouds.10 mph73%29.83 "HgN/A
9:20 AM63 °FPartly sunny.10 mph83%29.83 "HgN/A
8:50 AM63 °FPartly sunny.9 mph77%29.83 "HgN/A
8:20 AM61 °FPartly sunny.7 mph77%29.83 "HgN/A
7:50 AM59 °FPartly sunny.5 mph88%29.83 "HgN/A
7:20 AM59 °FPartly sunny.3 mph82%29.83 "HgN/A
6:50 AM59 °FLight rain. Partly sunny.7 mph82%29.83 "Hg5 mi
6:20 AM59 °FBroken clouds.6 mph82%29.83 "HgN/A
5:50 AM59 °FLight rain. Partly sunny.7 mph77%29.83 "HgN/A
5:20 AM59 °FBroken clouds.8 mph82%29.83 "HgN/A
4:50 AM54 °FPartly sunny.5 mph94%29.86 "HgN/A
4:20 AM50 °FPassing clouds.2 mph100%29.86 "HgN/A
3:50 AM48 °FCool.5 mph94%29.83 "HgN/A
3:20 AM52 °FCool.7 mph88%29.83 "HgN/A
2:50 AM52 °FCool.8 mph88%29.86 "HgN/A
2:20 AM50 °FCool.2 mph94%29.86 "HgN/A
1:50 AM52 °FCool.3 mph94%29.86 "HgN/A
1:20 AM52 °FPassing clouds.2 mph94%29.86 "HgN/A
12:50 AM50 °FPassing clouds.1 mph94%29.86 "HgN/A
12:20 AM52 °FCool.6 mph88%29.86 "HgN/A
11:50 PM
Mon, Jun 27
54 °FCool.6 mph88%29.86 "HgN/A
11:20 PM57 °FCool.3 mph77%29.86 "HgN/A
10:50 PM61 °FCool.3 mph68%29.86 "HgN/A
10:20 PM63 °FSunny.5 mph64%29.86 "Hg10 mi
Weather by CustomWeather, © 2016

See weather overviewHow to use our weather pages